H1 CPF 1 NER 2017 2 9 9 5401 glonass132 H2 1401201 9132 39620 2017 2 9 0 0 0 2017 2 12 23 45 0 900 1 1 0 0 0 H9 10 0 57793 0.00000 0 -2164095.160 -18191832.572 -17697139.855 10 0 57793 900.00000 0 -1651675.778 -20183351.812 -15447620.009 10 0 57793 1800.00000 0 -1359143.137 -21920300.633 -12896706.574 10 0 57793 2700.00000 0 -1253981.891 -23349376.598 -10094124.226 10 0 57793 3600.00000 0 -1294450.080 -24426880.856 -7094545.675 10 0 57793 4500.00000 0 -1431591.805 -25120475.736 -3956511.136 10 0 57793 5400.00000 0 -1611562.056 -25410479.645 -741268.863 10 0 57793 6300.00000 0 -1778162.969 -25290643.855 2488438.962 10 0 57793 7200.00000 0 -1875481.549 -24768378.435 5669619.192 10 0 57793 8100.00000 0 -1850514.504 -23864418.471 8740273.295 10 0 57793 9000.00000 0 -1655666.778 -22611945.870 11640619.417 10 0 57793 9900.00000 0 -1251016.180 -21055205.564 14314265.461 10 0 57793 10800.00000 0 -606247.101 -19247676.396 16709309.404 10 0 57793 11700.00000 0 297828.942 -17249875.649 18779345.056 10 0 57793 12600.00000 0 1468229.996 -15126891.267 20484353.884 10 0 57793 13500.00000 0 2899280.969 -12945746.528 21791466.568 10 0 57793 14400.00000 0 4572632.625 -10772708.078 22675580.912 10 0 57793 15300.00000 0 6457820.408 -8670649.739 23119825.959 10 0 57793 16200.00000 0 8513338.799 -6696581.054 23115865.346 10 0 57793 17100.00000 0 10688185.668 -4899441.847 22664036.104 10 0 57793 18000.00000 0 12923811.924 -3318252.362 21773322.040 10 0 57793 18900.00000 0 15156395.505 -1980693.221 20461163.818 10 0 57793 19800.00000 0 17319345.897 -902171.402 18753110.437 10 0 57793 20700.00000 0 19345936.127 -85408.379 16682319.493 10 0 57793 21600.00000 0 21171954.412 479434.925 14288915.946 10 0 57793 22500.00000 0 22738266.922 814103.617 11619221.326 10 0 57793 23400.00000 0 23993186.733 951093.454 8724867.559 10 0 57793 24300.00000 0 24894551.964 932043.772 5661811.377 10 0 57793 25200.00000 0 25411427.762 805746.254 2489267.076 10 0 57793 26100.00000 0 25525361.962 625852.805 -731423.079 10 0 57793 27000.00000 0 25231142.297 448378.253 -3937960.278 10 0 57793 27900.00000 0 24537023.276 329102.205 -7068281.091 10 0 57793 28800.00000 0 23464412.433 320978.766 -10061747.748 10 0 57793 29700.00000 0 22047027.840 471662.850 -12860314.669 10 0 57793 30600.00000 0 20329560.454 821257.381 -15409649.273 10 0 57793 31500.00000 0 18365895.511 1400376.853 -17660185.607 10 0 57793 32400.00000 0 16216965.436 2228610.042 -19568090.526 10 0 57793 33300.00000 0 13948322.275 3313448.431 -21096123.478 10 0 57793 34200.00000 0 11627529.648 4649727.730 -22214372.674 10 0 57793 35100.00000 0 9321482.038 6219608.793 -22900852.652 10 0 57793 36000.00000 0 7093762.660 7993101.701 -23141950.578 10 0 57793 36900.00000 0 5002150.121 9929114.046 -22932711.362 10 0 57793 37800.00000 0 3096378.172 11976982.191 -22276954.619 10 0 57793 38700.00000 0 1416242.733 14078423.725 -21187219.660 10 0 57793 39600.00000 0 -9863.855 16169830.921 -19684538.061 10 0 57793 40500.00000 0 -1165929.185 18184810.063 -17798036.824 10 0 57793 41400.00000 0 -2048766.217 20056860.381 -15564378.707 10 0 57793 42300.00000 0 -2667908.666 21722079.587 -13027049.853 10 0 57793 43200.00000 0 -3044960.938 23121781.321 -10235508.342 10 0 57793 44100.00000 0 -3212430.704 24204912.957 -7244210.461 10 0 57793 45000.00000 0 -3212094.629 24930170.379 -4111534.582 10 0 57793 45900.00000 0 -3092968.225 25267719.137 -898624.942 10 0 57793 46800.00000 0 -2908968.010 25200448.310 2331820.412 10 0 57793 47700.00000 0 -2716367.529 24724703.569 5516791.797 10 0 57793 48600.00000 0 -2571157.660 23850468.602 8594213.943 10 0 57793 49500.00000 0 -2526425.494 22600987.922 11504169.773 10 0 57793 50400.00000 0 -2629864.822 21011848.280 14190076.423 10 0 57793 51300.00000 0 -2921525.125 19129559.036 16599789.578 10 0 57793 52200.00000 0 -3431895.041 17009693.003 18686614.304 10 0 57793 53100.00000 0 -4180401.399 14714667.652 20410202.791 10 0 57793 54000.00000 0 -5174386.649 12311261.058 21737322.593 10 0 57793 54900.00000 0 -6408606.850 9867967.351 22642481.782 10 0 57793 55800.00000 0 -7865270.167 7452302.329 23108400.728 10 0 57793 56700.00000 0 -9514613.075 5128170.893 23126323.393 10 0 57793 57600.00000 0 -11315989.222 2953404.497 22696164.152 10 0 57793 58500.00000 0 -13219424.749 977569.041 21826489.182 10 0 57793 59400.00000 0 -15167575.015 -759868.289 20534334.364 10 0 57793 60300.00000 0 -17098001.512 -2230939.921 18844864.297 10 0 57793 61200.00000 0 -18945674.866 -3420091.144 16790879.686 10 0 57793 62100.00000 0 -20645600.953 -4324570.490 14412182.713 10 0 57793 63000.00000 0 -22135462.236 -4954283.353 11754812.232 10 0 57793 63900.00000 0 -23358165.845 -5331116.752 8870162.882 10 0 57793 64800.00000 0 -24264193.726 -5487764.704 5814003.959 10 0 57793 65700.00000 0 -24813658.086 -5466103.981 2645415.763 10 0 57793 66600.00000 0 -24977977.182 -5315188.349 -574337.355 10 0 57793 67500.00000 0 -24741101.841 -5088945.139 -3782976.837 10 0 57793 68400.00000 0 -24100241.218 -4843670.301 -6918401.264 10 0 57793 69300.00000 0 -23066056.690 -4635426.616 -9919877.185 10 0 57793 70200.00000 0 -21662314.500 -4517454.011 -12729207.251 10 0 57793 71100.00000 0 -19925009.927 -4537700.786 -15291853.713 10 0 57793 72000.00000 0 -17900997.656 -4736579.898 -17557995.755 10 0 57793 72900.00000 0 -15646183.461 -5145045.530 -19483500.362 10 0 57793 73800.00000 0 -13223350.605 -5783072.261 -21030787.680 10 0 57793 74700.00000 0 -10699709.910 -6658602.682 -22169573.591 10 0 57793 75600.00000 0 -8144274.141 -7767010.100 -22877474.373 10 0 57793 76500.00000 0 -5625165.075 -9091101.593 -23140460.691 10 0 57793 77400.00000 0 -3206965.049 -10601664.100 -22953150.827 10 0 57793 78300.00000 0 -948223.229 -12258533.375 -22318936.040 10 0 57793 79200.00000 0 1100779.021 -14012143.362 -21249934.048 10 0 57793 80100.00000 0 2899909.739 -15805492.865 -19766770.018 10 0 57793 81000.00000 0 4420635.537 -17576448.209 -17898187.908 10 0 57793 81900.00000 0 5646977.024 -19260285.701 -15680498.510 10 0 57793 82800.00000 0 6575929.825 -20792366.730 -13156874.231 10 0 57793 83700.00000 0 7217333.515 -22110832.102 -10376504.014 10 0 57793 84600.00000 0 7593194.398 -23159200.743 -7393625.067 10 0 57793 85500.00000 0 7736491.673 -23888761.524 -4266451.194 10 0 57794 0.00000 0 7689519.043 -24260655.672 -1056019.939 10 0 57794 900.00000 0 7501834.112 -24247559.984 2175017.642 10 0 57794 1800.00000 0 7227904.496 -23834899.811 5363637.939 10 0 57794 2700.00000 0 6924553.620 -23021538.185 8447691.507 10 0 57794 3600.00000 0 6648316.275 -21819914.224 11367128.489 10 0 57794 4500.00000 0 6452818.701 -20255624.297 14065177.504 10 0 57794 5400.00000 0 6386295.594 -18366465.519 16489454.000 10 0 57794 6300.00000 0 6489350.263 -16200983.145 18592976.071 10 0 57794 7200.00000 0 6793052.900 -13816584.556 20335068.124 10 0 57794 8100.00000 0 7317456.913 -11277300.309 21682135.731 10 0 57794 9000.00000 0 8070594.970 -8651286.872 22608298.044 10 0 57794 9900.00000 0 9047995.736 -6008175.774 23095867.216 10 0 57794 10800.00000 0 10232740.196 -3416379.294 23135667.663 10 0 57794 11700.00000 0 11596053.874 -940463.715 22727190.942 10 0 57794 12600.00000 0 13098409.085 1361302.374 21878585.186 10 0 57794 13500.00000 0 14691090.487 3439125.266 20606480.867 10 0 57794 14400.00000 0 16318158.400 5253501.165 18935657.388 10 0 57794 15300.00000 0 17918728.311 6776596.493 16898557.606 10 0 57794 16200.00000 0 19429472.276 7993139.011 14534659.817 10 0 57794 17100.00000 0 20787239.104 8900785.255 11889718.942 10 0 57794 18000.00000 0 21931685.307 9509951.058 9014890.874 10 0 57794 18900.00000 0 22807808.461 9843113.857 5965755.825 10 0 57794 19800.00000 0 23368278.384 9933616.899 2801258.231 10 0 57794 20700.00000 0 23575469.668 9824025.740 -417417.564 10 0 57794 21600.00000 0 23403111.015 9564105.841 -3628015.502 10 0 57794 22500.00000 0 22837482.336 9208505.651 -6768398.571 10 0 57794 23400.00000 0 21878108.811 8814241.819 -9777740.086 10 0 57794 24300.00000 0 20537921.672 8438091.607 -12597693.387 10 0 57794 25200.00000 0 18842877.167 8134001.710 -15173517.943 10 0 57794 26100.00000 0 16831047.579 7950622.341 -17455140.371 10 0 57794 27000.00000 0 14551219.908 7929070.649 -19398129.953 10 0 57794 27900.00000 0 12061058.312 8101018.431 -20964569.584 10 0 57794 28800.00000 0 9424904.774 8487185.935 -22123804.727 10 0 57794 29700.00000 0 6711307.718 9096306.963 -22853055.163 10 0 57794 30600.00000 0 3990379.980 9924611.072 -23137876.620 10 0 57794 31500.00000 0 1331095.270 10955847.118 -22972462.062 10 0 57794 32400.00000 0 -1201364.814 12161849.680 -22359775.367 10 0 57794 33300.00000 0 -3548102.644 13503626.987 -21311513.249 10 0 57794 34200.00000 0 -5658730.917 14932926.561 -19847894.610 10 0 57794 35100.00000 0 -7493239.902 16394214.215 -17997280.017 10 0 57794 36000.00000 0 -9023426.790 17826983.926 -15795627.498 10 0 57794 36900.00000 0 -10233826.565 19168301.328 -13285794.471 10 0 57794 37800.00000 0 -11122105.042 20355473.000 -10516699.085 10 0 57794 38700.00000 0 -11698897.677 21328727.718 -7542357.479 10 0 57794 39600.00000 0 -11987101.563 22033794.796 -4420816.593 10 0 57794 40500.00000 0 -12020651.829 22424268.776 -1213004.607 10 0 57794 41400.00000 0 -11842835.962 22463658.756 2018476.883 10 0 57794 42300.00000 0 -11504219.674 22127034.219 5210593.317 10 0 57794 43200.00000 0 -11060274.686 21402196.864 8301124.054 10 0 57794 44100.00000 0 -10568811.519 20290328.502 11229889.467 10 0 57794 45000.00000 0 -10087328.386 18806087.948 13939932.666 10 0 57794 45900.00000 0 -9670390.390 16977153.632 16378631.810 10 0 57794 46800.00000 0 -9367151.244 14843232.319 18498720.864 10 0 57794 47700.00000 0 -9219122.837 12454577.078 20259199.113 10 0 57794 48600.00000 0 -9258286.688 9870077.938 21626112.596 10 0 57794 49500.00000 0 -9505626.088 7155006.166 22573193.691 10 0 57794 50400.00000 0 -9970139.401 4378507.012 23082348.166 10 0 57794 51300.00000 0 -10648374.399 1610945.343 23143982.319 10 0 57794 52200.00000 0 -11524501.476 -1078786.184 22757165.879 10 0 57794 53100.00000 0 -12570921.168 -3625885.890 21929629.449 10 0 57794 54000.00000 0 -13749379.332 -5972082.167 20677598.105 10 0 57794 54900.00000 0 -15012542.689 -8067794.185 19025465.545 10 0 57794 55800.00000 0 -16305968.647 -9873927.250 17005315.778 10 0 57794 56700.00000 0 -17570387.475 -11363231.106 14656301.740 10 0 57794 57600.00000 0 -18744202.289 -12521167.432 12023892.514 10 0 57794 58500.00000 0 -19766103.458 -13346252.654 9159002.987 10 0 57794 59400.00000 0 -20577689.417 -13849863.665 6117021.720 10 0 57794 60300.00000 0 -21125985.486 -14055515.776 2956754.484 10 0 57794 61200.00000 0 -21365756.265 -13997643.714 -260697.368 10 0 57794 62100.00000 0 -21261515.422 -13719936.777 -3473103.414 10 0 57794 63000.00000 0 -20789148.751 -13273297.636 -6618294.288 10 0 57794 63900.00000 0 -19937082.048 -12713509.717 -9635353.384 10 0 57794 64800.00000 0 -18706943.743 -12098710.439 -12465788.062 10 0 57794 65700.00000 0 -17113692.866 -11486775.745 -15054658.306 10 0 57794 66600.00000 0 -15185204.845 -10932725.406 -17351641.323 10 0 57794 67500.00000 0 -12961329.955 -10486258.091 -19312011.615 10 0 57794 68400.00000 0 -10492461.079 -10189520.160 -20897517.385 10 0 57794 69300.00000 0 -7837667.989 -10075202.861 -22077135.770 10 0 57794 70200.00000 0 -5062473.534 -10165049.237 -22827691.587 10 0 57794 71100.00000 0 -2236362.339 -10468835.288 -23134326.561 10 0 57794 72000.00000 0 569875.670 -10983870.286 -22990808.664 10 0 57794 72900.00000 0 3286857.244 -11695039.473 -22399674.151 10 0 57794 73800.00000 0 5849260.777 -12575389.531 -21372197.956 10 0 57794 74700.00000 0 8198313.328 -13587234.124 -19928191.481 10 0 57794 75600.00000 0 10284005.484 -14683734.473 -18095630.271 10 0 57794 76500.00000 0 12066940.759 -15810889.332 -15910117.582 10 0 57794 77400.00000 0 13519741.281 -16909850.667 -13414193.515 10 0 57794 78300.00000 0 14627950.293 -17919466.903 -10656502.802 10 0 57794 79200.00000 0 15390393.301 -18778945.205 -7690837.627 10 0 57794 80100.00000 0 15818982.925 -19430518.707 -4575074.988 10 0 57794 81000.00000 0 15937976.599 -19822003.940 -1370030.553 10 0 57794 81900.00000 0 15782719.945 -19909138.331 1861746.933 10 0 57794 82800.00000 0 15397930.943 -19657597.043 5057215.134 10 0 57794 83700.00000 0 14835599.919 -19044602.430 8154085.292 10 0 57794 84600.00000 0 14152596.777 -18060057.177 11092050.880 10 0 57794 85500.00000 0 13408089.271 -16707153.022 13813972.090 10 0 57795 0.00000 0 12660883.632 -15002429.749 16266991.973 10 0 57795 900.00000 0 11966801.905 -12975282.375 18403562.310 10 0 57795 1800.00000 0 11376206.819 -10666939.481 20182358.676 10 0 57795 2700.00000 0 10931780.317 -8128955.151 21569068.591 10 0 57795 3600.00000 0 10666646.961 -5421280.146 22537038.277 10 0 57795 4500.00000 0 10602921.202 -2609992.828 23067767.314 10 0 57795 5400.00000 0 10750737.237 235215.068 23151243.696 10 0 57795 6300.00000 0 11107800.411 3043693.777 22786114.802 10 0 57795 7200.00000 0 11659476.967 5746522.564 21979692.865 10 0 57795 8100.00000 0 12379416.675 8279118.748 20747796.476 10 0 57795 9000.00000 0 13230681.011 10583662.654 19114432.337 10 0 57795 9900.00000 0 14167328.850 12611240.376 17111324.139 10 0 57795 10800.00000 0 15136393.167 14323618.156 14777297.855 10 0 57795 11700.00000 0 16080166.370 15694577.334 12157535.003 10 0 57795 12600.00000 0 16938699.371 16710756.659 9302707.620 10 0 57795 13500.00000 0 17652410.808 17371968.885 6268010.650 10 0 57795 14400.00000 0 18164698.273 17690979.867 3112109.131 10 0 57795 15300.00000 0 18424443.147 17692760.193 -103980.739 10 0 57795 16200.00000 0 18388304.766 17413240.917 -3318056.389 10 0 57795 17100.00000 0 18022708.001 16897625.294 -6467918.318 10 0 57795 18000.00000 0 17305440.653 16198326.622 -9492562.192 10 0 57795 18900.00000 0 16226792.761 15372617.912 -12333351.492 10 0 57795 19800.00000 0 14790188.543 14480091.144 -14935148.698 10 0 57795 20700.00000 0 13012282.458 13580032.041 -17247383.459 10 0 57795 21600.00000 0 10922512.806 12728820.129 -19225037.212 10 0 57795 22500.00000 0 8562128.727 11977463.168 -20829525.054 10 0 57795 23400.00000 0 5982728.391 11369369.874 -22029457.266 10 0 57795 24300.00000 0 3244366.575 10938455.292 -22801265.048 10 0 57795 25200.00000 0 413308.025 10707659.655 -23129677.302 10 0 57795 26100.00000 0 -2440481.714 10687944.573 -23008037.971 10 0 57795 27000.00000 0 -5246004.938 10877810.568 -22438456.355 10 0 57795 27900.00000 0 -7933949.593 11263358.108 -21431785.921 10 0 57795 28800.00000 0 -10439343.056 11818891.348 -20007430.464 10 0 57795 29700.00000 0 -12704030.935 12508040.584 -18192979.959 10 0 57795 30600.00000 0 -14678876.700 13285357.065 -16023681.927 10 0 57795 31500.00000 0 -16325589.155 14098313.262 -13541757.813 10 0 57795 32400.00000 0 -17618100.424 14889623.796 -10795577.282 10 0 57795 33300.00000 0 -18543435.993 15599787.984 -7838706.675 10 0 57795 34200.00000 0 -19102040.022 16169744.926 -4728850.970 10 0 57795 35100.00000 0 -19307542.675 16543526.824 -1526711.104 10 0 57795 36000.00000 0 -19185980.307 16670796.074 1705219.368 10 0 57795 36900.00000 0 -18774503.077 16509156.655 4903892.776 10 0 57795 37800.00000 0 -18119626.763 16026140.153 8006954.789 10 0 57795 38700.00000 0 -17275105.131 15200781.077 10953974.608 10 0 57795 39600.00000 0 -16299515.355 14024714.158 13687632.178 10 0 57795 40500.00000 0 -15253660.854 12502747.175 16154838.229 10 0 57795 41400.00000 0 -14197903.141 10652885.550 18307764.815 10 0 57795 42300.00000 0 -13189536.513 8505808.569 20104766.378 10 0 57795 43200.00000 0 -12280316.690 6103820.238 21511174.256 10 0 57795 44100.00000 0 -11514247.100 3499319.719 22499950.555 10 0 57795 45000.00000 0 -10925714.791 752856.181 23052190.389 10 0 57795 45900.00000 0 -10538052.507 -2069150.463 23157464.797 10 0 57795 46800.00000 0 -10362585.164 -4896928.163 22813999.737 10 0 57795 47700.00000 0 -10398198.376 -7660006.709 22028689.572 10 0 57795 48600.00000 0 -10631444.935 -10289898.220 20816946.454 10 0 57795 49500.00000 0 -11037182.903 -12722694.865 19202389.684 10 0 57795 50400.00000 0 -11579717.188 -14901478.214 17216381.797 10 0 57795 51300.00000 0 -12214396.019 -16778442.785 14897420.556 10 0 57795 52200.00000 0 -12889595.209 -18316648.160 12290398.295 10 0 57795 53100.00000 0 -13549007.407 -19491329.088 9445742.278 10 0 57795 54000.00000 0 -14134141.111 -20290711.143 6418451.645 10 0 57795 54900.00000 0 -14586925.593 -20716299.427 3267048.291 10 0 57795 55800.00000 0 -14852313.466 -20782629.218 52460.678 10 0 57795 56700.00000 0 -14880772.454 -20516489.385 -3163139.223 10 0 57795 57600.00000 0 -14630562.286 -19955650.930 -6317524.678 10 0 57795 58500.00000 0 -14069701.062 -19147153.262 -9349606.639 10 0 57795 59400.00000 0 -13177537.973 -18145219.184 -12200607.827 10 0 57795 60300.00000 0 -11945865.092 -17008884.966 -14815196.376 10 0 57795 61200.00000 0 -10379519.770 -15799443.894 -17142557.486 10 0 57795 62100.00000 0 -8496449.996 -14577809.715 -19137382.497 10 0 57795 63000.00000 0 -6327237.133 -13401910.056 -20760756.109 10 0 57795 63900.00000 0 -3914093.029 -12324219.042 -21980924.085 10 0 57795 64800.00000 0 -1309370.319 -11389532.945 -22773925.873 10 0 57795 65700.00000 0 1426354.801 -10633082.937 -23124078.905 10 0 57795 66600.00000 0 4226549.746 -10079065.284 -23024303.909 10 0 57795 67500.00000 0 7021250.108 -9739652.125 -22476283.509 10 0 57795 68400.00000 0 9739737.711 -9614525.902 -21490449.487 10 0 57795 69300.00000 0 12313260.973 -9690958.568 -20085797.344 10 0 57795 70200.00000 0 14677684.103 -9944433.516 -18289530.359 10 0 57795 71100.00000 0 16775953.939 -10339784.956 -16136538.763 10 0 57795 72000.00000 0 18560280.266 -10832807.057 -13668723.347 10 0 57795 72900.00000 0 19993937.313 -11372264.699 -10934176.295 10 0 57795 73800.00000 0 21052609.922 -11902219.942 -7986235.280 10 0 57795 74700.00000 0 21725227.156 -12364574.365 -4882430.081 10 0 57795 75600.00000 0 22014248.209 -12701717.661 -1683343.458 10 0 57795 76500.00000 0 21935389.084 -12859168.118 1548589.836 10 0 57795 77400.00000 0 21516802.719 -12788090.865 4750320.433 10 0 57795 78300.00000 0 20797748.964 -12447585.111 7859431.972 10 0 57795 79200.00000 0 19826812.770 -11806641.852 10815372.692 10 0 57795 80100.00000 0 18659748.275 -10845688.076 13560645.290 10 0 57795 81000.00000 0 17357042.193 -9557651.658 16041930.722 10 0 57795 81900.00000 0 15981301.382 -7948502.048 18211123.572 10 0 57795 82800.00000 0 14594576.239 -6037244.521 20026258.828 10 0 57795 83700.00000 0 13255733.413 -3855369.100 21452312.898 10 0 57795 84600.00000 0 12017988.289 -1445778.146 22461864.577 10 0 57795 85500.00000 0 10926700.042 1138761.524 23035604.870 10 0 57796 0.00000 0 10017520.141 3837576.826 23162687.794 10 0 57796 900.00000 0 9314969.979 6584375.411 22840917.372 10 0 57796 1800.00000 0 8831503.963 9309766.213 22076769.218 10 0 57796 2700.00000 0 8567096.170 11943910.296 20885247.787 10 0 57796 3600.00000 0 8509363.803 14419193.398 19289583.414 10 0 57796 4500.00000 0 8634221.521 16672810.964 17320775.654 10 0 57796 5400.00000 0 8907037.227 18649160.803 15016992.024 10 0 57796 6300.00000 0 9284240.207 20301946.327 12422833.463 10 0 57796 7200.00000 0 9715313.995 21595905.125 9588480.110 10 0 57796 8100.00000 0 10145090.640 22508092.976 6568732.840 10 0 57796 9000.00000 0 10516250.836 23028671.381 3421967.879 10 0 57796 9900.00000 0 10771925.748 23161166.740 209023.385 10 0 57796 10800.00000 0 10858292.148 22922190.888 -3007961.813 10 0 57796 11700.00000 0 10727052.411 22340634.562 -6166736.202 10 0 57796 12600.00000 0 10337695.432 21456366.967 -9206128.348 10 0 57796 13500.00000 0 9659443.155 20318494.974 -12067222.342 10 0 57796 14400.00000 0 8672800.009 18983253.657 -14694493.891 10 0 57796 15300.00000 0 7370638.707 17511615.343 -17036885.452 10 0 57796 16200.00000 0 5758774.655 15966716.189 -19048799.747 10 0 57796 17100.00000 0 3856002.235 14411207.192 -20690992.375 10 0 57796 18000.00000 0 1693588.466 12904640.065 -21931345.692 10 0 57796 18900.00000 0 -685757.952 11500997.336 -22745508.334 10 0 57796 19800.00000 0 -3229402.247 10246470.425 -23117386.999 10 0 57796 20700.00000 0 -5876723.312 9177579.513 -23039479.679 10 0 57796 21600.00000 0 -8561398.987 8319715.045 -22513042.502 10 0 57796 22500.00000 0 -11213943.292 7686163.232 -21548085.365 10 0 57796 23400.00000 0 -13764390.665 7277657.773 -20163194.879 10 0 57796 24300.00000 0 -16145015.502 7082477.753 -18385186.615 10 0 57796 25200.00000 0 -18292973.038 7077088.428 -16248592.111 10 0 57796 26100.00000 0 -20152750.181 7227298.322 -13794989.804 10 0 57796 27000.00000 0 -21678322.554 7489883.604 -11072192.451 10 0 57796 27900.00000 0 -22834926.070 7814610.349 -8133306.957 10 0 57796 28800.00000 0 -23600367.505 8146567.757 -5035685.711 10 0 57796 29700.00000 0 -23965818.403 8428711.656 -1839791.053 10 0 57796 30600.00000 0 -23936058.771 8604508.286 1392003.349 10 0 57796 31500.00000 0 -23529160.906 8620563.917 4596648.761 10 0 57796 32400.00000 0 -22775627.977 8429126.568 7711669.151 10 0 57796 33300.00000 0 -21717025.524 7990351.813 10676394.205 10 0 57796 34200.00000 0 -20404165.806 7274235.245 13433151.790 10 0 57796 35100.00000 0 -18894923.938 6262128.952 15928395.487 10 0 57796 36000.00000 0 -17251779.960 4947777.621 18113744.705 10 0 57796 36900.00000 0 -15539192.155 3337830.862 19946917.119 10 0 57796 37800.00000 0 -13820913.147 1451810.860 21392536.088 10 0 57796 38700.00000 0 -12157361.813 -678462.454 22422798.688 10 0 57796 39600.00000 0 -10603160.778 -3009963.636 23017993.044 10 0 57796 40500.00000 0 -9204941.285 -5490025.014 23166856.986 10 0 57796 41400.00000 0 -7999505.286 -8058305.471 22866773.092 10 0 57796 42300.00000 0 -7012419.163 -10649082.715 22123798.275 10 0 57796 43200.00000 0 -6257095.076 -13193774.402 20952529.006 10 0 57796 44100.00000 0 -5734395.594 -15623584.505 19375805.995 10 0 57796 45000.00000 0 -5432775.674 -17872166.555 17424264.813 10 0 57796 45900.00000 0 -5328953.991 -19878195.137 15135741.412 10 0 57796 46800.00000 0 -5389084.055 -21587740.919 12554543.758 10 0 57796 47700.00000 0 -5570375.246 -22956352.519 9730603.043 10 0 57796 48600.00000 0 -5823095.585 -23950760.517 6718519.893 10 0 57796 49500.00000 0 -6092872.469 -24550134.173 3576522.719 10 0 57796 50400.00000 0 -6323195.396 -24746839.480 365357.128 10 0 57796 51300.00000 0 -6458016.289 -24546667.454 -2852873.551 10 0 57796 52200.00000 0 -6444338.803 -23968523.068 -6015895.497 10 0 57796 53100.00000 0 -6234688.200 -23043587.259 -9062457.458 10 0 57796 54000.00000 0 -5789357.951 -21813986.099 -11933507.568 10 0 57796 54900.00000 0 -5078338.066 -20331021.498 -14573331.842 10 0 57796 55800.00000 0 -4082842.985 -18653036.071 -16930632.717 10 0 57796 56700.00000 0 -2796373.067 -16843000.102 -18959526.958 10 0 57796 57600.00000 0 -1225262.750 -14965920.278 -20620443.530 10 0 57796 58500.00000 0 611310.367 -13086177.672 -21880903.574 10 0 57796 59400.00000 0 2681859.030 -11264905.724 -22716166.747 10 0 57796 60300.00000 0 4943643.290 -9557517.717 -23109730.428 10 0 57796 61200.00000 0 7344209.729 -8011487.476 -23053670.855 10 0 57796 62100.00000 0 9823351.273 -6664476.810 -22548818.194 10 0 57796 63000.00000 0 12315407.930 -5542888.979 -21604760.566 10 0 57796 63900.00000 0 14751813.631 -4660909.915 -20239675.381 10 0 57796 64800.00000 0 17063783.486 -4020078.376 -18479989.768 10 0 57796 65700.00000 0 19185029.041 -3609403.884 -16359875.422 10 0 57796 66600.00000 0 21054387.089 -3406027.933 -13920586.812 10 0 57796 67500.00000 0 22618250.797 -3376400.436 -11209655.189 10 0 57796 68400.00000 0 23832699.729 -3477921.115 -8279954.160 10 0 57796 69300.00000 0 24665237.901 -3660975.151 -5188655.772 10 0 57796 70200.00000 0 25096065.670 -3871275.123 -1996098.648 10 0 57796 71100.00000 0 25118831.303 -4052407.799 1235408.143 10 0 57796 72000.00000 0 24740830.547 -4148475.383 4442820.108 10 0 57796 72900.00000 0 23982646.500 -4106716.797 7563605.115 10 0 57796 73800.00000 0 22877246.284 -3879995.618 10536977.701 10 0 57796 74700.00000 0 21468574.456 -3429047.497 13305094.036 10 0 57796 75600.00000 0 19809704.537 -2724390.652 15814183.118 10 0 57796 76500.00000 0 17960628.617 -1747818.049 18015591.595 10 0 57796 77400.00000 0 15985779.907 -493408.278 19866721.832 10 0 57796 78300.00000 0 13951393.646 1031986.975 21331845.740 10 0 57796 79200.00000 0 11922817.734 2808798.562 22382779.842 10 0 57796 80100.00000 0 9961885.623 4805335.275 22999410.131 10 0 57796 81000.00000 0 8124460.358 6978893.209 23170058.548 10 0 57796 81900.00000 0 6458250.637 9277332.123 22891686.047 10 0 57796 82800.00000 0 5000987.727 11641052.760 22169930.225 10 0 57796 83700.00000 0 3779036.566 14005293.047 21018978.479 10 0 57796 84600.00000 0 2806496.021 16302648.441 19461280.380 10 0 57796 85500.00000 0 2084823.112 18465712.792 17527105.632 99